Atlantic - Newfoundland: Past 24 Hour Conditions

 

Englee

02:30 PM NDT 21 August 2014
This table is a summary of hourly weather conditions for the past 24 hours.
Date / Time
(NDT)
Wind(knots) Conditions Visibility(km) Pressure(kPa) Air tempC) Relative humidity(%) Dew pointC)
21 August 2014
14:30 NNW 8 N/A N/A 101.5 14 97 14
13:30 NNW 15 gust 23 N/A N/A 101.5 15 96 14
12:30 NNW 16 N/A N/A 101.5 15 99 14
11:30 NNW 17 gust 22 N/A N/A 101.5 14 100 14
10:30 NW 16 gust 21 N/A N/A 101.5 13 100 13
9:30 NNW 17 gust 24 N/A N/A 101.4 13 100 13
8:30 NNW 18 gust 25 N/A N/A 101.4 13 100 13
7:30 NNW 16 gust 22 N/A N/A 101.3 13 100 13
6:30 NNW 16 gust 21 N/A N/A 101.3 13 100 13
5:30 NNW 13 gust 19 N/A N/A 101.3 12 100 12
4:30 NNW 12 gust 20 N/A N/A 101.2 13 100 13
3:30 NNW 12 gust 19 N/A N/A 101.2 12 100 12
2:30 NNW 12 N/A N/A 101.2 13 100 13
1:30 NNW 13 N/A N/A 101.2 13 100 13
0:30 NNW 13 N/A N/A 101.2 13 100 13
20 August 2014
23:30 NNW 11 gust 17 N/A N/A 101.2 13 100 13
22:30 NNW 10 gust 16 N/A N/A 101.2 13 100 13
21:30 NNW 9 N/A N/A 101.2 13 100 13
20:30 NNW 9 N/A N/A 101.2 14 100 14
19:30 NNW 5 N/A N/A 101.1 15 98 15
18:30 NNW 4 N/A N/A 101.1 15 97 15
17:30 NNE 5 N/A N/A 101.1 16 95 15
16:30 NE 6 N/A N/A 101.0 17 92 16
15:30 ENE 10 N/A N/A 101.0 18 91 17
14:30 ENE 9 gust 15 N/A N/A 101.0 19 89 17
 
Map of Atlantic - Newfoundland marine weather areas Southwestern Grand Banks - 44138 Banquereau - 44139 Tail of the Bank - 44140 Nickerson Bank - 44251 Northeast Burgeo Bank - 44255 Blanc-Sablon Airport Cap Whittle Chevery Natashquan Airport Heath Point Miscou Island Grand Étang Ingonish Beach North Mountain St.Paul Island J.A. Douglas McCurdy Sydney Airport Charlottetown Airport East Point North Cape Argentia Bonavista Burgeo Cape Race Corner Brook Daniel's Harbour Englee Ferolle Point La Scie Port aux Basques Rocky Harbour Sagona Island St. Anthony Airport St. John's Int'l Airport St. Lawrence Stephenville Airport Twillingate Winterland Wreckhouse Cartwright Airport Mary's Harbour Grates Cove Pool's Island Marticot Island Long Pond Îles de la Madeleine Airport
Legend: buoyBuoy land stationLand Station